Location: Newark
(50.0306°N, 2.3272°E)
Time: 23:54:52
(UTC+00:00)

Vanguard 1 - Pass Details

Date: 17 December 2019
Orbit: 651 x 3832 km, 34.2° (Epoch: 21 January)

Event Time Altitude Azimuth Distance (km) Brightness Sun altitude
Exits shadow 01:02:31 29° 130° (SE) 5,432 13.6 -59.5°
Drops below altitude 10° 01:17:20 10° 92° (E) 6,761 14.5 -58.0°
Sets 01:23:12 0° 83° (E) 7,538 14.9 -57.3°
